When you browse on this site, cookies collect data to enhance your experience and personalize the content and advertising you see.
Visit our Privacy Policy to learn more. By continuing to use the site, you agree to this use of cookies and data.
  • In Hungary
  • List of Countries
  • For 7 days
  • Water Temperature
  • Weather Map
  • News
  • Weather Widgets
  • user-avatar
    Login

    Hourly Weather Venustiano Carranza

    Today, 12 November, Tuesday

    Time Temperature Precipitation Wind Pressure Humidity
    00:00 +20°C° 0 mm 1 mps 687 mmHg 91%
    01:00 +20°C° 0 mm 1 mps 687 mmHg 90%
    02:00 +20°C° 0 mm 1 mps 687 mmHg 90%
    03:00 +19°C° 0 mm 1 mps 686 mmHg 90%
    04:00 +19°C° 0 mm 1 mps 687 mmHg 88%
    05:00 +19°C° 0 mm 1 mps 687 mmHg 86%
    06:00 +19°C° 0 mm 1 mps 687 mmHg 84%
    07:00 +21°C° 0 mm 1 mps 688 mmHg 82%
    08:00 +20°C° 0 mm 0 mps 689 mmHg 79%
    09:00 +22°C° 0 mm 0 mps 689 mmHg 76%
    10:00 +25°C° 0 mm 1 mps 689 mmHg 72%
    11:00 +27°C° 0 mm 1 mps 689 mmHg 67%
    12:00 +28°C° 0 mm 1 mps 689 mmHg 63%
    13:00 +28°C° 0 mm 1 mps 688 mmHg 62%
    14:00 +28°C° 0 mm 1 mps 688 mmHg 61%
    15:00 +28°C° 0 mm 2 mps 687 mmHg 60%
    16:00 +26°C° 0 mm 2 mps 687 mmHg 67%
    17:00 +24°C° 0 mm 2 mps 687 mmHg 73%
    18:00 +21°C° 0 mm 2 mps 687 mmHg 80%
    19:00 +20°C° 0 mm 2 mps 688 mmHg 82%
    20:00 +21°C° 0 mm 1 mps 688 mmHg 84%
    21:00 +20°C° 0 mm 1 mps 689 mmHg 86%
    22:00 +20°C° 0 mm 1 mps 689 mmHg 87%
    23:00 +20°C° 0 mm 1 mps 688 mmHg 89%

    Tomorrow, 13 November, Wednesday

    Time Temperature Precipitation Wind Pressure Humidity
    00:00 +18°C° 0 mm 0 mps 688 mmHg 90%
    01:00 +18°C° 0.1 mm 0 mps 688 mmHg 90%
    02:00 +18°C° 0.1 mm 0 mps 688 mmHg 91%
    03:00 +18°C° 0.1 mm 0 mps 688 mmHg 91%
    04:00 +18°C° 0.1 mm 0 mps 688 mmHg 92%
    05:00 +18°C° 0.1 mm 0 mps 688 mmHg 93%
    06:00 +18°C° 0.1 mm 0 mps 688 mmHg 94%
    07:00 +20°C° 0 mm 1 mps 689 mmHg 91%
    08:00 +21°C° 0 mm 1 mps 689 mmHg 89%
    09:00 +22°C° 0 mm 1 mps 690 mmHg 86%
    10:00 +23°C° 0.1 mm 1 mps 689 mmHg 83%
    11:00 +24°C° 0.1 mm 2 mps 689 mmHg 81%
    12:00 +25°C° 0.1 mm 2 mps 689 mmHg 79%
    13:00 +25°C° 0.1 mm 2 mps 688 mmHg 79%
    14:00 +24°C° 0.1 mm 2 mps 688 mmHg 80%
    15:00 +24°C° 0.1 mm 2 mps 687 mmHg 80%
    16:00 +23°C° 0 mm 2 mps 687 mmHg 84%
    17:00 +22°C° 0 mm 1 mps 687 mmHg 88%
    18:00 +20°C° 0 mm 1 mps 687 mmHg 92%
    19:00 +20°C° 0 mm 1 mps 687 mmHg 92%
    20:00 +20°C° 0 mm 1 mps 688 mmHg 91%
    21:00 +19°C° 0 mm 1 mps 689 mmHg 91%
    22:00 +19°C° 0 mm 1 mps 688 mmHg 92%
    23:00 +19°C° 0 mm 1 mps 688 mmHg 93%

    Day after tomorrow, 14 November, Thursday

    Time Temperature Precipitation Wind Pressure Humidity
    00:00 +18°C° 0 mm 1 mps 688 mmHg 95%
    01:00 +16°C° 0 mm 0 mps 688 mmHg 95%
    02:00 +16°C° 0 mm 0 mps 687 mmHg 95%
    03:00 +16°C° 0 mm 0 mps 687 mmHg 95%
    04:00 +16°C° 0 mm 0 mps 687 mmHg 94%
    05:00 +16°C° 0 mm 0 mps 688 mmHg 93%
    06:00 +16°C° 0 mm 0 mps 688 mmHg 93%
    07:00 +18°C° 0 mm 0 mps 688 mmHg 88%
    08:00 +20°C° 0 mm 0 mps 689 mmHg 83%
    09:00 +22°C° 0 mm 0 mps 690 mmHg 78%
    10:00 +25°C° 0 mm 1 mps 690 mmHg 76%
    11:00 +26°C° 0 mm 1 mps 689 mmHg 73%
    12:00 +27°C° 0 mm 1 mps 689 mmHg 71%
    13:00 +27°C° 0.2 mm 1 mps 689 mmHg 71%
    14:00 +27°C° 0.2 mm 1 mps 688 mmHg 72%
    15:00 +27°C° 0.2 mm 1 mps 688 mmHg 73%
    16:00 +25°C° 0.2 mm 1 mps 688 mmHg 79%
    17:00 +24°C° 0.2 mm 1 mps 688 mmHg 85%
    18:00 +22°C° 0.2 mm 1 mps 688 mmHg 91%
    19:00 +21°C° 0.1 mm 1 mps 688 mmHg 92%
    20:00 +21°C° 0.1 mm 1 mps 689 mmHg 93%
    21:00 +20°C° 0.1 mm 1 mps 689 mmHg 94%
    22:00 +20°C° 0.1 mm 1 mps 689 mmHg 94%
    23:00 +20°C° 0.1 mm 1 mps 689 mmHg 94%

    15 November, Friday

    Time Temperature Precipitation Wind Pressure Humidity
    00:00 +20°C° 0.1 mm 1 mps 689 mmHg 94%
    01:00 +19°C° 0 mm 1 mps 689 mmHg 93%
    02:00 +19°C° 0 mm 1 mps 688 mmHg 93%
    03:00 +19°C° 0 mm 1 mps 688 mmHg 93%
    04:00 +19°C° 0 mm 1 mps 688 mmHg 93%
    05:00 +19°C° 0 mm 1 mps 688 mmHg 93%
    06:00 +19°C° 0 mm 1 mps 689 mmHg 93%
    07:00 +20°C° 0 mm 1 mps 689 mmHg 89%
    08:00 +22°C° 0 mm 1 mps 690 mmHg 85%
    09:00 +22°C° 0 mm 0 mps 691 mmHg 81%
    10:00 +25°C° 0.1 mm 1 mps 690 mmHg 77%
    11:00 +26°C° 0.1 mm 1 mps 690 mmHg 73%
    12:00 +27°C° 0.1 mm 1 mps 690 mmHg 69%
    13:00 +27°C° 0.5 mm 1 mps 689 mmHg 71%
    14:00 +27°C° 0.5 mm 2 mps 689 mmHg 73%
    15:00 +26°C° 0.5 mm 2 mps 688 mmHg 76%
    16:00 +25°C° 0.8 mm 2 mps 688 mmHg 81%
    17:00 +23°C° 0.8 mm 2 mps 688 mmHg 85%
    18:00 +20°C° 0.8 mm 2 mps 688 mmHg 90%
    19:00 +20°C° 0.1 mm 2 mps 689 mmHg 91%
    20:00 +20°C° 0.1 mm 1 mps 689 mmHg 91%
    21:00 +20°C° 0.1 mm 1 mps 690 mmHg 91%
    22:00 +20°C° 0 mm 1 mps 689 mmHg 92%
    23:00 +20°C° 0 mm 1 mps 689 mmHg 93%

    16 November, Saturday

    Time Temperature Precipitation Wind Pressure Humidity
    00:00 +19°C° 0 mm 1 mps 689 mmHg 94%
    01:00 +17°C° 0 mm 0 mps 689 mmHg 94%
    02:00 +17°C° 0 mm 0 mps 688 mmHg 94%
    03:00 +17°C° 0 mm 0 mps 688 mmHg 94%
    04:00 +17°C° 0 mm 0 mps 688 mmHg 94%
    05:00 +17°C° 0 mm 0 mps 688 mmHg 95%
    06:00 +16°C° 0 mm 0 mps 688 mmHg 95%
    07:00 +18°C° 0 mm 0 mps 689 mmHg 91%
    08:00 +19°C° 0 mm 0 mps 689 mmHg 87%
    09:00 +21°C° 0 mm 0 mps 690 mmHg 82%
    10:00 +22°C° 0 mm 0 mps 690 mmHg 78%
    11:00 +25°C° 0 mm 1 mps 689 mmHg 74%
    12:00 +27°C° 0 mm 1 mps 689 mmHg 70%
    13:00 +27°C° 0.1 mm 1 mps 689 mmHg 70%
    14:00 +27°C° 0.1 mm 1 mps 688 mmHg 70%
    15:00 +26°C° 0.1 mm 1 mps 687 mmHg 70%
    16:00 +25°C° 0.2 mm 1 mps 687 mmHg 77%
    17:00 +23°C° 0.2 mm 1 mps 687 mmHg 84%
    18:00 +21°C° 0.2 mm 1 mps 687 mmHg 91%
    19:00 +20°C° 0 mm 1 mps 687 mmHg 91%
    20:00 +20°C° 0 mm 1 mps 688 mmHg 91%
    21:00 +19°C° 0 mm 1 mps 688 mmHg 92%
    22:00 +19°C° 0 mm 1 mps 688 mmHg 92%
    23:00 +17°C° 0 mm 0 mps 687 mmHg 93%

    17 November, Sunday

    Time Temperature Precipitation Wind Pressure Humidity
    00:00 +17°C° 0 mm 0 mps 687 mmHg 94%
    01:00 +16°C° 0 mm 0 mps 687 mmHg 94%
    02:00 +16°C° 0 mm 0 mps 686 mmHg 94%
    03:00 +16°C° 0 mm 0 mps 686 mmHg 94%
    04:00 +16°C° 0 mm 0 mps 686 mmHg 94%
    05:00 +16°C° 0 mm 0 mps 686 mmHg 93%
    06:00 +16°C° 0 mm 0 mps 686 mmHg 93%
    07:00 +18°C° 0 mm 0 mps 687 mmHg 89%
    08:00 +19°C° 0 mm 0 mps 687 mmHg 85%
    09:00 +21°C° 0 mm 0 mps 688 mmHg 80%
    10:00 +23°C° 0 mm 0 mps 688 mmHg 76%
    11:00 +26°C° 0 mm 1 mps 687 mmHg 72%
    12:00 +27°C° 0 mm 1 mps 687 mmHg 68%
    13:00 +27°C° 0.1 mm 1 mps 686 mmHg 69%
    14:00 +27°C° 0.1 mm 1 mps 686 mmHg 70%
    15:00 +27°C° 0.1 mm 1 mps 685 mmHg 71%
    16:00 +25°C° 0.2 mm 1 mps 685 mmHg 76%
    17:00 +22°C° 0.2 mm 0 mps 685 mmHg 82%
    18:00 +20°C° 0.2 mm 0 mps 685 mmHg 88%
    19:00 +20°C° 0 mm 0 mps 686 mmHg 89%
    20:00 +19°C° 0 mm 0 mps 686 mmHg 90%
    21:00 +19°C° 0 mm 0 mps 687 mmHg 91%
    22:00 +19°C° 0 mm 0 mps 687 mmHg 92%
    23:00 +18°C° 0 mm 0 mps 687 mmHg 94%
    Show more